Wind_Speed
34 36 38 40 42 43 44 44 45 47 48 51 53 54 56 57 59 60 62 63 64 66 68 69 70 72 73 74 74 74 75 77 79 80 80 80 81 81 81 82 82 83 82 82 83 83 84 85 86 86 85 84 85 84 80 79 74 65 61 58 59 61 58 55 56 62 64 62 59 60 61 61 61 60 59 60 59 61 63 63 64 65 65 64 63
23 25 27 29 31 33 35 36 38 39 41 43 45 48 50 52 54 56 57 59 60 62 63 65 67 69 70 71 72 72 73 74 76 78 80 81 81 82 83 83 84 84 85 85 85 86 86 87 88 88 87 86 87 87 84 82 82 78 74 70 65 64 66 63 58 59 62 58 52 51 53 55 55 54 55 58 58 59 61 61 61 62 62 62 62
19 20 21 22 24 25 27 29 30 31 33 34 36 38 40 43 45 47 49 51 53 54 56 57 59 61 63 65 66 67 67 68 70 73 75 78 80 81 82 83 84 85 86 86 87 88 88 89 90 91 92 90 90 90 89 88 87 84 83 82 79 76 76 75 68 61 59 58 54 52 52 54 54 53 53 55 56 57 58 57 57 59 59 59 58
20 21 22 23 24 25 26 27 28 29 31 32 33 34 35 37 38 39 41 43 44 46 48 49 51 53 55 57 59 60 61 62 63 65 68 71 74 77 78 80 82 84 86 87 88 88 89 91 92 93 95 96 95 94 94 94 94 92 89 87 87 87 86 85 82 73 66 62 60 58 57 56 57 57 56 55 54 53 53 52 52 54 56 56 55
22 23 24 24 25 27 28 29 30 31 32 33 34 35 36 37 38 39 40 41 42 43 44 45 47 48 50 52 54 56 58 59 61 62 64 66 69 72 74 76 78 80 82 84 87 89 90 91 93 94 96 98 99 99 99 98 98 98 97 94 92 93 94 95 94 89 81 72 67 66 64 61 59 59 59 60 57 55 55 54 53 54 54 54 54
25 26 26 27 28 29 30 31 32 33 35 36 37 38 39 40 41 41 42 43 44 45 45 46 47 48 49 51 53 55 57 59 61 63 64 66 68 70 72 75 76 78 79 81 83 86 88 90 91 94 96 98 101 103 102 102 102 102 102 101 99 97 97 98 99 98 94 87 79 74 72 69 65 62 62 65 65 62 60 57 56 57 56 55 55
27 28 29 30 31 32 33 34 35 36 38 39 41 42 43 43 44 45 46 47 47 48 49 50 51 52 53 54 55 57 59 61 63 65 67 68 70 71 73 75 77 79 80 81 82 83 85 87 89 91 94 96 100 103 104 104 104 105 105 105 103 102 100 100 100 100 99 97 92 86 80 76 72 69 67 69 69 67 65 61 57 56 56 56 55
29 31 32 33 33 34 35 36 37 39 40 42 43 45 46 47 48 49 50 51 52 53 54 55 56 57 58 59 61 62 63 65 67 69 70 72 73 74 75 76 78 79 81 82 84 85 85 87 88 90 92 94 96 100 104 105 106 106 107 107 106 105 104 103 102 102 101 100 99 96 90 83 78 75 74 74 73 70 70 69 63 58 57 57 56
32 34 35 36 36 37 38 39 40 41 42 44 45 47 48 50 51 53 54 55 57 58 59 60 61 62 63 64 66 67 68 70 71 73 74 75 75 76 77 78 79 80 81 82 84 86 87 88 89 90 92 93 95 97 100 103 105 106 107 107 107 107 107 106 105 105 104 103 101 100 98 92 87 83 81 79 79 76 74 74 71 67 66 65 60
36 38 39 40 40 41 42 43 43 44 46 47 48 50 51 52 54 55 57 58 60 61 62 64 65 66 67 68 69 71 73 74 75 76 76 77 78 78 79 80 81 82 82 83 84 85 87 89 90 92 93 94 96 97 98 100 102 105 106 107 107 107 108 108 107 107 107 106 104 103 102 99 95 93 90 86 84 84 81 79 77 73 74 73 68
39 40 42 43 44 45 46 47 48 49 50 51 52 53 54 56 57 58 60 61 62 64 65 66 67 68 70 71 73 75 76 76 77 77 78 80 81 82 83 84 85 86 87 87 87 88 88 90 91 92 94 95 97 98 99 100 101 103 104 106 106 106 108 109 108 108 108 108 108 106 105 103 100 99 98 93 90 89 87 85 82 78 77 77 75
41 42 44 45 46 47 49 50 51 52 53 54 56 57 58 60 61 62 63 64 65 66 67 68 69 71 73 74 76 77 78 78 80 81 82 84 86 87 89 89 90 91 92 93 94 94 94 94 94 94 95 96 98 99 101 102 103 104 104 105 106 106 107 108 108 108 109 110 110 109 108 106 104 103 102 99 96 94 92 90 88 85 82 80 78
43 45 46 48 49 50 52 53 53 54 55 57 58 60 62 63 64 65 66 67 68 69 70 71 72 74 76 78 79 79 80 82 84 85 87 89 91 93 94 95 95 96 97 98 99 100 100 100 100 99 98 99 100 101 102 104 105 106 106 106 107 107 108 109 109 109 109 110 111 111 110 109 108 106 105 104 102 98 96 94 93 91 89 86 82
47 48 50 51 53 54 55 56 57 58 59 60 61 63 65 66 67 68 70 71 72 72 73 74 75 77 79 80 81 82 83 86 88 90 92 94 96 98 100 100 101 102 102 102 102 102 103 104 104 104 103 103 103 103 104 106 108 109 110 109 109 109 109 109 110 110 111 112 113 112 111 110 110 109 108 107 106 103 100 99 97 96 94 92 87
51 52 54 55 57 58 59 60 61 61 63 64 65 67 68 69 70 72 73 74 75 75 76 77 79 80 81 83 84 85 87 90 92 94 97 99 102 104 105 106 106 106 105 105 105 105 106 106 107 107 107 107 107 107 107 107 109 110 112 113 113 112 111 111 111 111 111 113 114 114 113 111 110 110 110 111 110 107 105 103 101 99 97 96 93
53 54 56 58 59 60 61 62 64 65 66 67 68 69 70 71 73 74 76 77 77 78 79 80 81 83 84 85 87 89 90 93 97 99 102 104 107 109 110 110 110 110 109 109 109 110 110 110 110 110 110 109 110 111 111 112 112 112 113 114 116 116 116 114 114 114 114 113 113 115 115 114 112 110 110 111 112 110 109 107 104 102 101 99 98
54 56 58 59 60 61 63 64 65 66 68 69 70 71 72 73 75 77 78 79 79 80 81 83 83 85 86 88 91 93 94 97 101 103 105 108 110 112 112 113 114 114 115 115 116 116 115 115 115 114 114 113 113 114 115 116 116 115 114 115 117 118 119 119 118 118 118 117 115 114 115 116 115 113 111 111 112 111 111 110 107 105 105 103 100
57 59 60 61 62 63 65 66 66 67 68 69 70 71 73 75 77 79 79 80 81 82 83 84 85 87 89 92 94 97 99 101 104 106 108 110 112 114 116 118 119 120 121 122 122 122 121 120 119 119 118 117 116 117 118 118 119 119 118 118 118 119 119 121 122 122 122 121 119 116 115 115 116 116 114 113 112 112 112 111 109 108 108 106 103
59 61 62 63 64 65 66 66 67 67 68 69 71 72 75 77 78 79 80 82 83 84 85 86 88 90 93 96 98 101 103 104 106 107 109 111 114 117 120 123 124 125 127 128 128 127 126 124 123 123 122 121 120 120 120 120 121 121 121 122 122 121 120 121 123 125 126 125 124 121 119 117 117 117 116 115 114 113 112 111 111 112 112 109 105
61 63 64 65 66 66 66 66 66 67 68 70 72 74 76 77 79 80 82 83 85 86 87 89 91 93 96 99 102 104 105 106 107 109 111 114 117 121 125 127 129 130 132 132 132 130 129 126 124 123 122 122 121 121 121 121 121 122 122 123 124 124 123 123 125 127 127 127 127 126 124 122 120 119 117 116 115 115 114 112 111 113 115 112 109
63 64 65 66 65 65 66 66 67 68 70 72 74 76 77 79 80 82 84 85 86 88 90 93 96 97 99 102 104 105 107 108 110 112 114 118 121 125 128 131 132 133 134 133 132 130 127 125 122 120 118 117 116 116 117 118 119 121 122 122 123 124 124 125 127 129 129 128 128 128 128 127 124 122 120 117 115 115 115 114 113 114 116 115 112
64 65 65 65 65 66 67 68 69 71 72 74 75 77 79 81 82 84 86 87 89 91 94 96 99 100 101 103 105 107 109 111 113 116 118 122 125 128 130 131 132 132 132 130 127 124 121 118 115 112 110 109 108 107 107 108 110 114 117 118 120 121 123 125 127 129 129 129 129 129 129 129 128 125 122 120 117 116 116 116 115 115 116 117 115
62 63 64 65 67 68 69 70 71 73 74 76 77 79 81 83 84 86 88 90 92 95 97 99 101 102 103 105 107 109 111 114 117 119 122 125 127 128 128 128 127 125 123 121 117 114 111 108 105 103 101 99 99 98 97 98 99 102 105 108 111 114 117 120 123 125 127 129 130 130 131 130 129 126 124 122 120 119 119 118 118 117 116 117 117
62 64 66 67 68 69 70 71 73 74 76 78 80 81 83 85 86 88 90 93 96 98 99 101 103 105 107 108 110 112 114 117 119 122 124 125 125 125 123 121 117 113 110 108 105 103 100 98 96 94 93 91 90 90 89 89 89 90 92 95 98 102 106 110 114 117 121 124 128 130 131 131 130 127 125 123 123 123 122 122 121 119 117 117 118
65 66 67 68 69 70 71 73 75 77 78 80 82 83 85 86 87 90 93 96 98 100 102 104 106 108 111 112 114 116 118 120 122 123 123 122 120 117 113 109 104 100 98 96 95 93 92 90 89 88 87 86 84 83 83 82 81 81 82 84 87 90 94 97 100 105 111 116 121 126 129 130 131 129 127 126 126 126 125 125 123 121 119 119 119
67 67 68 68 69 71 73 75 77 79 80 82 83 85 86 88 90 93 95 98 100 102 105 107 109 112 114 116 117 119 120 122 122 121 119 116 111 106 101 96 91 88 87 87 86 85 85 84 84 83 82 80 79 78 77 76 75 75 75 75 78 81 84 87 89 93 98 105 112 117 122 126 129 130 130 129 128 128 127 127 126 124 122 121 121
67 67 68 69 71 72 74 76 78 80 82 83 84 86 88 91 93 95 98 100 103 105 108 110 112 114 117 118 120 121 121 120 118 115 111 106 100 94 89 85 82 80 80 79 79 79 79 79 78 77 76 74 73 72 72 71 71 70 70 70 71 73 75 78 81 84 88 93 100 107 113 118 123 127 129 130 130 129 129 128 128 127 125 124 123
67 67 69 71 72 74 76 78 80 81 83 84 86 88 91 93 96 98 100 103 106 108 111 113 114 116 119 120 120 120 119 115 111 106 100 95 89 85 82 79 77 76 75 74 74 74 73 71 70 69 68 67 66 66 66 66 66 66 67 67 67 68 70 72 75 78 80 84 89 96 102 108 114 120 125 128 130 130 130 129 129 129 127 126 125
68 69 71 73 75 77 78 80 82 84 85 87 88 90 93 96 98 100 102 105 108 111 113 115 116 118 119 119 118 117 114 108 101 95 89 85 81 79 78 76 75 74 72 71 72 70 67 65 64 63 63 63 62 61 60 61 62 63 63 64 65 66 67 69 71 72 73 75 80 86 92 98 104 110 117 122 126 128 129 129 129 129 128 127 127
70 72 74 76 77 79 81 82 84 86 88 89 91 93 95 97 100 103 105 107 109 112 114 116 117 117 117 116 113 109 104 98 92 86 81 78 76 75 74 73 72 72 71 72 72 70 67 65 64 62 62 62 61 59 58 58 59 60 60 61 63 64 65 67 69 69 69 71 74 77 83 89 95 101 107 114 120 124 126 127 128 128 129 128 127
73 75 76 78 80 81 83 85 86 88 90 92 94 96 97 98 101 103 106 109 110 112 113 115 115 113 111 108 103 98 92 87 83 79 77 76 74 72 71 70 70 70 72 73 72 70 68 67 65 62 62 62 60 59 58 58 58 58 58 58 60 61 63 64 65 67 68 69 70 72 76 81 86 92 97 105 112 117 121 123 124 125 126 128 128
75 77 78 80 82 83 85 87 88 90 92 94 96 99 100 101 102 104 105 108 110 111 112 111 109 106 102 97 91 86 81 78 76 75 75 74 72 70 70 70 70 71 72 72 70 67 67 66 64 62 61 61 59 58 58 57 57 57 57 58 58 59 60 62 62 64 67 68 69 69 71 74 79 84 89 95 103 109 115 118 121 122 123 125 126
77 79 80 82 83 85 87 88 90 92 94 96 98 100 102 104 106 106 106 107 108 109 109 106 101 95 88 82 79 77 75 73 72 73 72 71 71 71 71 71 70 71 71 70 67 65 64 64 63 62 61 59 58 58 58 57 56 56 56 57 57 57 57 59 61 62 64 65 66 67 68 69 72 76 82 87 94 100 106 111 115 119 120 122 123
79 80 82 83 85 86 88 90 92 94 96 98 100 102 104 106 108 109 109 109 108 106 102 98 92 84 75 69 68 70 71 71 70 69 69 70 72 74 73 70 68 68 69 69 68 66 64 63 63 62 61 60 59 58 57 56 55 55 55 55 55 55 55 57 59 60 61 62 64 65 65 66 67 70 75 80 86 92 98 102 106 110 113 116 119
81 82 83 85 86 88 90 91 93 95 97 99 101 103 105 107 109 110 110 110 107 103 96 89 82 74 67 63 62 65 68 70 68 66 67 70 73 75 74 69 66 66 66 67 67 66 64 62 61 61 60 60 59 59 58 57 55 55 54 54 53 53 53 54 56 57 58 59 61 62 63 64 64 66 69 74 80 85 90 94 98 102 105 108 112
82 83 85 86 88 89 91 93 95 97 98 100 103 104 106 107 108 109 108 106 103 97 90 81 73 66 62 61 62 63 65 65 64 65 68 71 72 73 73 70 67 64 63 63 64 63 62 61 60 59 58 58 58 58 59 58 56 54 54 53 52 51 50 50 51 53 55 56 57 58 60 61 62 62 65 69 74 79 84 87 91 95 98 101 105
83 84 86 88 89 91 93 94 96 98 100 102 104 105 106 107 107 106 104 100 95 88 80 73 67 62 58 59 62 63 61 59 60 63 67 69 70 72 72 70 66 63 61 60 61 61 60 59 60 59 58 57 56 56 56 57 56 54 53 52 51 49 48 46 46 48 50 53 53 55 56 58 59 60 61 64 68 73 78 81 85 88 91 94 97
84 86 87 89 91 92 94 95 97 99 101 103 104 105 106 106 104 102 98 92 85 78 71 65 62 60 58 59 61 61 58 56 58 60 62 65 68 69 67 65 62 60 58 58 59 60 60 59 58 58 57 56 55 54 54 54 54 53 52 51 50 49 47 46 45 45 47 49 50 52 54 55 55 56 59 61 63 67 72 76 79 82 85 87 91
86 87 89 90 92 93 95 97 98 100 102 103 104 104 104 102 100 95 90 83 76 69 64 60 58 59 60 61 61 59 56 55 56 58 59 61 63 62 61 59 58 58 58 58 59 61 61 59 57 56 55 54 53 52 52 51 51 50 50 49 49 48 48 47 46 45 46 46 47 49 52 53 52 53 57 59 60 63 67 70 74 78 81 83 87
87 88 90 91 93 94 96 98 99 101 102 102 103 102 101 98 93 88 81 75 68 62 60 58 57 58 61 62 61 59 56 55 56 57 58 56 55 55 56 58 59 59 59 60 60 61 61 59 56 54 51 50 50 50 49 48 48 47 47 47 47 47 47 47 47 47 46 46 47 48 50 51 50 51 54 56 57 60 63 66 70 73 77 80 84
88 90 91 92 94 95 97 99 100 101 101 101 101 99 95 91 86 79 72 67 62 59 57 56 56 58 60 60 59 59 59 57 57 57 56 52 51 52 55 58 59 59 59 59 59 59 59 57 55 52 49 48 48 48 47 46 45 44 44 44 44 45 46 46 46 46 46 46 46 47 48 49 48 49 52 53 54 56 59 62 65 69 73 78 82
89 90 92 93 95 96 97 98 99 100 100 99 97 93 89 83 77 71 65 61 58 57 55 54 56 58 58 57 58 59 59 59 58 57 53 49 49 50 52 54 56 56 56 57 57 57 55 53 51 49 47 46 45 45 45 44 42 41 41 41 41 41 42 43 43 44 44 44 44 44 45 46 45 45 47 49 51 53 55 57 60 64 69 74 79
90 91 92 94 95 96 97 98 99 99 97 95 91 86 81 75 69 64 60 57 55 55 55 55 56 56 55 55 56 57 57 58 57 54 50 48 47 48 49 50 51 51 52 53 54 54 52 50 48 47 45 44 43 43 43 42 41 39 39 39 38 37 37 38 39 40 41 41 42 42 43 43 42 42 44 47 49 51 54 56 58 62 66 71 77
91 92 93 94 95 96 97 98 97 96 93 89 84 79 73 67 62 59 56 54 54 54 55 57 57 55 53 53 54 55 55 56 55 52 50 49 48 48 48 48 48 49 50 52 53 53 50 48 46 45 44 42 41 40 40 40 39 37 37 37 36 34 33 34 35 37 38 39 39 40 40 40 40 40 41 43 46 48 50 53 55 58 62 68 74
91 92 93 94 95 96 96 96 94 91 86 82 76 70 65 61 57 55 53 53 53 54 56 57 57 54 52 52 53 53 54 54 53 52 52 50 48 48 49 48 48 49 51 52 53 54 52 49 46 43 42 40 39 38 38 38 38 36 36 36 35 33 32 32 34 36 37 37 38 39 39 38 38 38 39 40 43 46 48 50 53 56 60 65 72
91 92 94 94 95 95 95 93 89 85 80 75 69 63 58 55 53 52 52 53 54 55 56 56 55 52 51 52 52 52 52 52 51 51 51 50 48 47 47 47 47 49 50 51 51 52 52 52 49 46 42 38 36 35 35 35 36 35 34 34 34 34 33 33 33 35 36 36 37 38 37 36 36 36 37 40 43 45 47 49 51 55 59 64 69
92 93 93 94 94 93 91 88 83 78 73 68 62 57 54 52 52 53 54 55 55 56 55 53 52 50 51 52 52 52 51 50 50 50 49 46 45 44 44 44 46 48 49 49 49 50 51 51 51 49 45 40 36 34 32 31 32 32 32 32 33 34 34 33 33 33 34 35 35 35 34 33 33 34 36 38 40 42 43 45 48 52 57 63 68
92 93 93 93 92 90 86 81 76 71 66 61 57 54 53 53 54 55 56 55 55 54 52 50 49 49 50 51 51 51 50 49 49 48 46 43 42 42 42 42 45 48 48 47 47 49 50 50 49 49 48 43 38 34 31 30 29 29 30 30 32 33 33 33 32 32 33 34 34 33 32 31 31 33 34 36 38 39 41 43 46 50 55 61 67
92 92 92 91 88 84 80 75 70 65 61 57 54 54 54 55 55 56 55 54 52 51 49 47 46 47 49 50 50 50 49 48 47 45 43 41 41 41 40 41 45 47 47 45 46 48 49 48 47 47 47 45 40 35 32 30 29 29 29 30 30 30 31 30 30 31 33 33 33 32 31 31 32 33 34 36 37 39 41 43 46 49 54 61 67
92 92 90 87 83 78 73 68 64 60 57 55 55 55 55 55 55 54 53 51 49 47 45 44 45 46 48 48 48 48 47 47 45 42 40 40 40 40 39 41 44 45 45 45 46 47 47 47 47 46 44 43 40 36 32 30 29 28 28 28 27 26 26 26 28 30 32 32 31 30 31 31 32 33 35 37 38 39 41 43 46 50 55 62 68
91 89 86 82 77 72 67 63 60 57 56 56 56 56 55 54 53 52 50 48 46 44 42 42 43 45 46 47 47 47 46 45 43 41 39 39 39 40 39 40 42 43 43 44 44 45 46 47 47 45 43 41 38 35 31 29 27 26 25 24 23 23 23 24 26 29 31 30 29 28 28 29 30 32 33 35 37 39 41 44 47 52 58 64 68
Wind_Direction
274 275 276 277 278 278 279 278 278 276 275 274 273 272 272 271 271 271 271 271 271 271 270 270 270 270 270 271 271 270 270 269 270 270 270 269 270 269 269 269 270 269 269 269 269 270 270 270 271 271 270 269 270 271 270 267 263 253 242 239 238 239 242 242 242 245 249 255 260 262 262 260 258 259 262 263 264 263 263 262 263 262 261 261 260
275 276 277 278 279 280 281 281 281 281 279 278 277 276 276 275 275 274 274 274 274 274 274 273 273 273 274 274 274 274 274 273 272 271 271 271 271 270 270 269 269 269 269 269 268 269 269 269 269 270 270 269 269 269 268 268 267 263 256 251 247 248 252 252 247 244 245 246 251 255 257 258 257 256 259 263 263 264 263 262 263 263 262 262 260
279 279 279 279 279 280 281 281 282 282 281 281 280 279 278 278 278 278 277 277 277 277 276 276 276 275 276 276 277 277 277 277 275 274 273 273 273 272 271 271 270 269 269 269 268 268 268 268 268 268 269 268 268 267 267 266 266 265 262 260 257 256 259 261 257 250 242 238 241 247 249 252 253 253 256 259 258 260 262 262 262 263 263 263 262
280 280 280 281 281 281 281 281 282 281 281 281 281 280 279 279 279 279 279 279 279 279 279 279 279 278 278 277 278 278 278 278 278 277 276 275 274 274 273 273 272 271 270 269 268 268 267 267 268 268 268 268 268 267 267 267 266 265 262 260 260 260 261 264 264 259 250 241 241 247 249 249 251 252 254 253 250 251 256 257 258 261 264 265 264
281 281 281 282 282 283 283 283 283 283 283 283 283 282 282 281 281 280 280 280 280 280 280 280 281 281 281 281 281 281 281 281 281 280 279 278 277 276 275 275 274 273 272 271 270 269 268 267 266 266 267 268 268 268 267 267 267 266 265 262 261 261 262 264 266 265 260 252 245 248 252 253 251 251 252 251 249 250 254 256 256 257 260 264 266
285 285 285 285 285 285 286 286 286 286 286 286 286 285 285 284 284 284 283 282 282 281 281 280 280 281 281 281 282 282 282 282 282 282 281 280 280 279 278 277 276 275 275 273 272 271 270 269 267 266 265 265 266 267 267 267 267 267 267 265 264 263 262 263 264 265 265 261 254 251 253 255 254 251 251 252 251 251 254 256 258 257 256 258 263
285 285 285 285 285 285 286 286 286 285 285 285 285 285 284 284 284 283 283 282 282 281 281 280 280 280 279 279 280 280 281 281 281 281 281 280 279 279 279 278 278 277 277 276 275 273 272 271 269 268 267 265 265 265 266 266 266 267 267 266 265 264 263 263 263 263 264 264 262 258 255 255 255 254 253 253 252 251 252 252 252 255 254 254 256
285 286 286 287 287 287 287 287 286 286 286 285 285 285 285 284 284 283 283 282 282 282 281 281 281 281 281 281 281 281 281 281 281 281 281 280 280 279 278 278 277 276 276 276 275 275 274 273 271 270 269 267 266 265 265 265 265 265 266 266 266 265 264 263 263 263 262 262 263 262 259 255 254 254 254 256 255 253 253 252 248 249 252 252 252
287 287 288 288 288 289 289 288 288 288 287 287 287 287 286 286 286 285 285 284 283 283 283 283 283 283 283 284 284 284 284 284 284 283 282 282 281 280 279 278 277 276 275 274 273 273 273 273 272 271 270 269 268 266 266 266 265 265 264 264 265 266 265 264 263 262 262 262 261 262 261 258 256 255 255 256 257 255 255 255 252 249 251 252 250
288 288 288 288 288 288 288 288 288 288 288 288 288 288 288 288 288 287 287 286 285 284 284 284 284 284 285 285 286 286 286 286 286 286 285 284 283 282 281 280 280 278 277 275 273 272 272 271 271 270 270 269 269 268 266 265 265 265 265 264 264 264 265 264 264 262 262 262 261 261 261 260 258 257 256 256 257 257 255 255 254 252 252 253 251
287 287 287 287 287 287 287 287 286 286 287 287 287 288 288 288 288 288 289 288 288 286 285 285 284 284 285 285 286 286 287 287 287 287 287 286 286 285 284 283 282 281 280 278 276 275 273 272 270 269 269 268 267 267 267 266 265 265 265 264 264 263 263 263 263 263 262 261 261 261 260 260 259 259 258 256 256 257 256 256 255 254 253 254 252
287 288 288 287 287 287 287 286 286 286 286 286 287 287 288 288 288 289 290 290 290 289 287 286 285 285 285 286 286 287 287 288 288 288 288 288 288 287 286 285 284 283 282 281 280 278 276 274 272 271 269 268 267 266 265 265 264 264 263 263 263 263 263 263 263 262 261 261 261 260 260 260 259 259 258 257 256 256 256 257 256 255 254 254 253
288 288 288 289 288 288 288 287 287 287 287 286 286 287 288 288 289 290 291 291 291 290 289 287 287 286 286 287 287 288 288 289 289 289 289 289 289 288 287 286 285 284 283 282 281 280 278 277 275 273 271 269 268 266 265 264 263 263 262 262 262 262 262 262 262 262 262 261 260 260 259 259 259 258 258 258 257 256 256 256 256 256 255 253 253
287 287 287 288 288 288 288 288 288 288 287 287 287 288 288 289 290 290 291 292 292 291 289 288 287 287 287 288 288 288 289 290 290 290 290 290 290 289 289 288 287 286 284 283 282 281 279 278 276 275 273 271 270 268 266 265 263 262 261 261 261 261 260 260 261 261 261 261 260 259 258 258 257 257 257 257 256 255 255 255 255 255 255 254 252
287 287 287 288 288 288 289 289 289 289 288 288 288 288 289 289 290 290 291 292 291 290 289 288 288 288 288 288 289 289 290 290 291 291 291 291 291 291 290 290 289 287 286 285 284 282 281 279 278 276 274 272 271 269 267 265 264 262 261 260 260 259 259 259 259 259 259 260 260 260 258 257 256 255 255 255 255 255 254 254 253 253 254 254 253
287 287 288 288 288 289 289 289 289 289 289 289 289 289 289 289 290 290 291 291 291 290 289 289 289 289 289 290 290 290 291 291 292 292 292 292 292 292 291 290 290 289 288 287 286 284 283 281 280 278 275 273 271 270 268 266 264 262 261 260 259 258 258 258 258 258 258 257 258 259 258 257 256 255 253 253 253 253 253 252 252 252 252 252 252
287 288 288 289 290 291 291 290 290 289 289 289 289 289 289 289 290 290 290 290 290 289 289 289 290 290 290 291 291 291 292 292 293 293 293 292 292 292 292 291 290 290 289 288 287 286 284 283 282 280 277 275 272 270 269 267 264 262 260 259 258 258 257 257 256 257 256 256 256 256 257 257 256 255 253 252 252 252 251 251 251 251 250 250 250
288 288 289 291 292 292 292 291 291 290 290 290 290 289 290 290 290 290 290 290 290 290 290 290 290 291 291 292 292 293 293 293 293 293 293 293 293 293 292 292 291 291 290 289 288 287 286 284 283 281 279 276 274 271 269 267 265 262 260 259 257 256 256 256 255 255 255 255 254 254 254 255 255 255 254 253 252 251 250 250 249 249 248 248 248
288 290 292 293 293 293 292 292 291 291 290 290 290 290 290 290 290 290 290 290 290 291 291 291 291 292 292 293 294 294 294 294 294 294 294 294 294 294 293 293 292 292 291 290 289 288 287 285 283 282 280 277 275 272 270 268 265 263 260 259 257 256 255 255 254 254 253 253 253 253 253 253 253 253 253 252 252 251 250 248 248 248 247 247 247
290 292 294 294 294 293 293 292 292 291 291 290 290 290 290 290 290 290 291 291 291 292 292 292 293 293 294 295 295 295 295 295 295 295 295 295 295 295 294 294 293 292 291 291 290 288 287 285 283 282 280 278 276 273 271 268 266 264 261 259 257 256 254 253 253 253 252 251 251 251 251 251 251 251 252 251 251 251 250 248 246 246 246 246 245
293 294 294 294 294 293 293 292 292 291 291 291 291 291 291 291 291 292 292 292 292 293 294 294 295 295 296 296 296 296 296 296 296 296 296 296 296 295 295 294 294 293 292 291 290 288 287 285 283 281 280 278 276 273 271 269 267 264 262 260 258 256 254 253 251 251 251 250 250 250 250 249 249 249 250 250 250 250 250 249 247 245 244 245 244
294 294 294 295 294 294 293 293 292 292 291 291 291 292 292 293 293 294 294 294 294 295 296 296 296 297 297 297 297 297 297 297 297 297 297 297 296 296 295 295 294 293 292 291 290 288 287 285 283 281 279 277 275 274 272 270 268 265 263 261 259 257 255 253 251 250 249 249 248 248 248 248 247 247 248 249 249 249 248 248 247 245 244 243 243
295 296 296 296 295 294 294 293 293 292 292 292 293 294 294 295 295 295 296 296 297 297 298 298 298 298 298 298 298 298 298 298 298 298 298 297 297 296 296 295 294 293 292 291 290 288 287 285 284 282 280 278 276 275 273 271 269 266 264 262 260 258 256 254 252 250 248 247 246 246 246 246 245 245 245 246 246 247 246 246 245 244 243 243 242
297 297 297 296 296 295 295 294 294 294 294 295 295 296 296 297 297 297 298 299 299 299 299 299 300 300 300 300 299 299 299 299 299 299 298 298 297 297 296 295 294 293 292 291 290 289 288 286 285 284 282 280 278 276 275 273 271 269 267 264 262 260 259 257 255 252 249 246 244 243 243 243 243 243 242 242 242 243 243 244 244 243 243 242 241
299 298 298 297 297 296 295 295 295 296 296 297 298 298 298 298 299 300 300 300 300 301 301 301 301 301 301 301 301 301 301 300 300 300 299 298 298 297 296 294 293 292 292 291 290 290 289 288 287 285 284 283 281 279 277 276 274 272 270 267 265 263 261 259 258 256 253 249 245 243 241 241 241 241 240 238 238 239 240 241 242 242 242 241 241
300 300 299 298 298 297 297 297 297 298 299 299 300 300 300 301 301 301 302 302 302 302 302 302 302 302 302 302 302 302 301 301 301 300 300 299 297 296 295 293 292 292 291 291 291 290 290 289 288 288 287 286 285 283 282 280 278 275 272 270 268 266 264 262 260 258 256 253 249 245 242 240 239 238 238 237 236 236 237 238 239 240 240 240 239
301 300 300 299 298 298 298 299 299 300 301 301 301 302 302 302 303 303 303 303 303 304 304 304 304 303 303 303 303 302 302 302 302 301 299 298 296 295 293 292 291 291 290 290 290 289 288 288 288 288 288 287 287 286 285 283 281 278 275 272 269 267 265 264 262 260 258 255 252 249 245 242 239 238 236 235 234 234 234 235 236 237 238 238 238
302 301 300 300 300 300 300 301 301 302 302 302 303 303 303 304 304 305 305 305 305 305 305 305 304 304 304 304 303 303 303 303 302 301 299 297 296 294 294 293 293 292 291 291 289 288 288 288 288 288 288 288 287 286 284 283 281 279 277 274 271 268 266 264 262 261 259 256 254 251 248 245 242 239 237 236 234 233 232 233 233 234 235 236 236
302 302 301 301 301 301 302 302 302 303 303 303 304 304 305 305 305 306 306 306 306 306 306 305 305 305 304 305 305 304 304 303 302 300 298 297 297 297 297 297 297 296 295 294 293 292 292 292 291 291 290 289 287 285 283 281 279 277 275 274 272 270 267 265 263 261 260 258 255 252 249 247 244 242 240 237 235 233 232 231 232 232 232 234 234
303 303 302 302 302 303 303 303 303 304 304 304 305 305 306 306 307 307 307 306 306 306 306 306 306 306 306 306 306 305 304 303 302 300 299 300 300 300 300 300 299 298 298 297 297 297 297 296 295 294 293 291 289 287 285 282 279 276 273 272 270 269 268 266 265 263 261 259 257 254 251 248 245 243 241 239 237 235 233 232 231 231 230 231 232
304 303 303 304 304 304 304 304 304 305 305 306 306 306 306 307 307 307 307 307 307 307 307 307 307 307 307 306 305 304 303 302 302 302 302 302 302 302 301 299 298 298 299 298 298 299 299 298 297 296 294 292 290 289 286 283 280 278 274 271 269 267 267 266 265 264 263 260 258 255 252 249 246 243 241 240 238 236 235 234 233 231 230 230 230
305 305 305 305 305 305 305 305 306 306 306 307 307 307 307 307 307 307 307 307 307 308 307 307 307 307 306 305 304 303 302 302 302 303 303 303 303 301 300 299 299 299 299 299 299 299 299 298 297 296 294 293 291 289 286 283 281 279 276 272 269 267 266 265 264 263 262 261 260 257 254 251 248 245 242 240 238 237 236 235 234 233 231 229 229
306 306 306 306 306 306 306 306 306 307 307 307 308 308 308 308 307 307 308 308 308 307 307 308 308 306 304 303 302 302 302 302 302 303 303 303 302 301 300 300 301 301 300 300 299 299 298 297 296 295 293 292 291 289 286 284 281 279 277 274 272 269 266 265 263 261 261 261 261 259 257 253 250 246 243 241 238 237 235 234 234 234 232 230 228
308 307 307 307 307 307 307 307 307 307 308 308 308 308 308 308 308 309 309 309 308 307 308 308 307 304 302 301 301 301 302 302 303 304 304 303 302 301 300 301 302 302 302 301 300 299 297 296 296 295 293 291 290 288 286 285 282 279 277 276 274 271 267 265 263 261 260 259 259 259 258 255 251 247 244 241 239 237 235 234 233 234 233 231 229
309 308 308 308 308 308 308 308 308 308 308 308 308 308 309 309 310 310 309 309 309 309 309 308 306 303 302 302 302 302 303 304 305 305 305 304 302 301 301 302 304 303 302 301 299 299 298 297 296 294 292 291 289 287 286 285 283 280 277 276 275 272 269 266 264 262 261 260 258 259 259 257 254 250 245 242 240 238 235 233 232 232 232 231 230
309 309 309 309 309 309 309 309 309 309 309 309 309 309 310 310 310 310 309 309 309 310 310 308 306 304 303 303 304 304 304 305 305 306 305 304 303 302 303 305 305 304 302 301 300 299 299 297 296 294 292 290 288 286 285 284 284 281 277 275 274 272 269 267 266 264 262 261 259 258 259 258 257 253 248 243 240 238 236 233 231 230 230 229 228
310 310 309 309 309 309 309 309 309 309 309 310 310 311 311 311 310 310 310 310 310 310 309 308 307 305 304 304 305 305 305 305 305 306 305 304 304 304 305 306 306 305 304 303 302 301 300 298 296 294 292 290 288 286 284 283 282 281 278 274 273 271 269 268 268 267 265 263 260 259 258 258 257 255 251 245 240 238 236 234 231 229 227 227 226
310 310 310 310 310 310 310 310 310 310 310 311 311 312 312 311 310 310 310 311 311 310 308 308 308 307 306 306 306 306 305 306 306 305 304 304 305 306 306 306 306 306 306 305 304 304 303 301 298 295 292 290 288 286 284 282 281 280 278 274 271 269 267 267 269 270 270 267 263 260 259 258 256 255 252 247 241 237 235 233 231 228 225 223 222
311 311 311 310 310 310 310 310 310 311 311 312 312 312 311 311 310 311 311 311 310 309 308 308 309 308 309 309 308 307 307 307 308 306 306 306 307 308 308 308 309 309 309 308 308 307 305 304 301 297 294 291 288 286 284 282 280 279 277 274 270 268 267 267 268 270 271 269 265 261 259 258 256 254 251 247 241 236 233 231 230 227 224 221 219
311 311 311 311 311 311 311 311 311 312 313 313 313 312 311 311 311 312 311 311 309 308 308 309 310 310 310 310 310 309 309 310 310 309 310 310 311 311 312 313 313 313 312 311 310 308 307 306 304 301 297 292 288 286 283 281 279 278 276 274 271 269 267 266 266 267 269 269 265 260 258 258 256 253 250 246 240 235 232 229 228 226 223 219 217
312 311 311 311 311 311 311 312 312 313 314 313 313 312 311 312 312 312 311 310 309 309 309 310 311 311 311 311 311 312 313 314 313 313 314 316 316 317 317 317 316 316 315 313 311 310 308 307 306 303 299 294 289 285 283 280 278 277 276 275 274 272 269 266 264 263 264 266 265 261 259 258 256 252 249 244 239 234 230 228 227 225 222 218 215
312 311 311 311 311 312 312 313 314 314 314 313 312 312 312 312 312 312 310 309 309 309 310 311 312 312 312 312 312 313 315 316 316 316 318 319 319 318 319 319 320 319 318 315 313 312 310 309 307 304 300 295 290 286 283 280 278 276 276 276 277 276 272 266 260 258 260 263 263 261 259 258 255 251 247 242 237 231 228 226 225 223 220 217 214
312 312 312 312 312 313 313 314 314 314 314 313 312 312 313 313 312 311 310 310 310 311 311 312 313 313 313 313 313 315 316 317 317 318 318 318 317 317 320 323 325 325 325 324 322 318 315 312 309 305 301 297 292 287 283 279 276 275 275 277 280 281 276 266 257 255 259 261 261 259 257 255 252 246 241 237 232 228 225 223 222 220 218 215 212
312 312 312 312 313 314 314 315 315 314 314 313 313 313 313 312 312 311 311 311 312 312 312 313 314 314 313 313 315 316 318 318 318 317 315 314 314 316 319 323 326 329 331 332 332 330 325 319 313 308 305 300 295 289 284 279 276 274 274 276 280 282 279 268 257 254 258 260 259 257 255 252 249 243 237 234 230 227 224 223 221 219 216 213 211
313 313 313 313 314 315 315 315 315 314 314 313 313 313 313 312 312 312 312 312 313 313 313 314 314 314 314 315 316 318 319 319 318 316 315 314 314 315 317 320 323 326 328 329 331 333 334 331 325 317 310 305 299 293 287 281 276 273 271 273 276 279 279 271 259 254 256 259 257 254 251 248 243 238 233 229 226 223 221 220 219 217 214 212 209
313 313 314 314 315 315 316 315 315 314 314 313 313 313 313 312 313 313 313 313 313 313 314 314 314 314 315 316 318 319 321 320 318 317 317 317 316 316 318 321 324 326 327 326 327 329 331 333 333 328 321 312 304 297 291 285 279 274 271 270 271 273 276 273 263 255 254 257 256 253 250 246 241 234 228 225 223 221 218 217 216 214 211 208 206
313 314 314 315 316 316 316 315 315 314 314 314 313 313 313 313 313 313 313 313 313 314 314 314 313 314 316 318 319 321 322 322 320 319 319 318 318 318 320 323 326 327 328 327 327 327 328 329 331 331 328 321 312 302 295 289 284 279 274 271 269 269 272 271 264 255 252 254 254 251 247 243 237 231 226 223 222 220 218 216 215 213 210 206 203
314 315 315 316 316 316 316 315 315 314 314 313 313 313 313 313 313 313 313 314 314 314 313 313 313 315 317 318 320 323 324 325 323 321 320 319 319 321 322 324 327 328 329 329 328 327 327 327 328 328 328 326 320 310 300 293 287 283 279 276 273 270 269 267 261 252 249 250 250 247 241 235 229 225 222 219 218 217 214 212 211 210 207 203 200
315 315 316 317 317 317 316 315 315 314 314 313 313 313 313 313 314 314 314 314 314 314 313 313 314 316 318 319 322 325 327 326 324 322 320 320 321 323 324 325 326 328 330 330 328 327 327 329 329 328 327 325 322 316 307 297 291 286 282 279 276 272 268 262 254 246 245 246 246 241 235 229 222 218 215 213 212 212 210 208 207 206 203 200 197
316 316 317 317 317 316 316 315 314 314 313 313 313 313 313 314 314 314 314 314 314 314 313 313 315 317 319 321 324 327 328 327 325 323 322 322 323 324 325 326 327 329 330 330 328 328 330 331 331 330 328 325 322 319 313 304 295 288 284 281 277 273 266 257 247 241 242 244 243 238 232 225 219 215 213 210 208 207 206 204 202 201 199 196 195
316 317 317 317 316 316 315 315 314 313 313 313 313 314 314 315 315 315 314 314 314 313 313 314 316 318 320 322 326 329 330 328 326 325 325 325 325 325 326 327 328 331 331 329 329 331 333 332 331 332 332 328 323 319 316 309 300 292 286 281 276 269 262 252 244 241 242 242 239 235 230 223 217 214 212 209 206 204 202 200 199 198 196 193 192
Height
5674 5674 5674 5674 5674 5673 5673 5673 5673 5673 5673 5673 5672 5672 5671 5671 5670 5670 5669 5669 5669 5669 5669 5669 5669 5668 5668 5668 5667 5667 5667 5666 5665 5665 5664 5664 5663 5663 5663 5663 5663 5664 5664 5665 5665 5665 5666 5665 5664 5664 5665 5667 5666 5666 5667 5668 5670 5672 5670 5668 5668 5666 5664 5664 5666 5673 5678 5680 5681 5684 5683 5683 5687 5689 5688 5688 5689 5688 5689 5689 5690 5692 5694 5696 5698
5671 5671 5671 5670 5670 5669 5669 5668 5668 5668 5667 5667 5667 5666 5666 5665 5664 5664 5663 5662 5662 5661 5661 5660 5660 5660 5659 5659 5658 5657 5657 5657 5656 5655 5654 5653 5653 5652 5652 5652 5653 5653 5653 5653 5654 5654 5655 5655 5654 5653 5653 5655 5656 5655 5656 5657 5658 5661 5661 5660 5659 5657 5654 5654 5656 5661 5668 5672 5672 5674 5675 5676 5679 5682 5680 5680 5681 5681 5682 5683 5683 5683 5685 5687 5689
5668 5668 5668 5667 5667 5666 5666 5665 5664 5663 5662 5662 5661 5661 5660 5659 5659 5658 5657 5656 5655 5654 5654 5653 5652 5651 5651 5650 5649 5648 5647 5646 5646 5645 5644 5643 5642 5641 5641 5641 5641 5641 5642 5642 5642 5642 5643 5643 5643 5642 5641 5642 5643 5643 5644 5645 5646 5648 5650 5650 5650 5648 5645 5644 5646 5650 5657 5663 5663 5664 5666 5667 5670 5673 5673 5673 5674 5673 5675 5677 5676 5676 5677 5677 5680
5667 5666 5665 5665 5664 5664 5663 5662 5661 5660 5659 5658 5657 5656 5655 5655 5654 5652 5651 5650 5649 5648 5647 5646 5645 5644 5643 5641 5640 5639 5638 5637 5635 5634 5633 5633 5632 5631 5630 5630 5630 5629 5629 5630 5630 5630 5631 5631 5631 5630 5630 5629 5630 5631 5631 5632 5633 5634 5637 5639 5639 5639 5636 5634 5636 5639 5644 5651 5654 5654 5656 5657 5661 5665 5665 5665 5666 5666 5667 5669 5669 5670 5670 5670 5671
5664 5663 5662 5662 5661 5660 5660 5659 5658 5657 5656 5654 5653 5652 5651 5650 5649 5648 5647 5645 5644 5643 5642 5640 5639 5637 5635 5634 5632 5630 5629 5627 5626 5624 5623 5622 5621 5620 5620 5619 5619 5618 5618 5617 5617 5617 5618 5619 5619 5618 5617 5616 5616 5617 5617 5617 5618 5619 5621 5624 5626 5628 5627 5625 5625 5628 5632 5638 5643 5644 5646 5648 5650 5655 5656 5655 5657 5658 5659 5660 5661 5662 5663 5663 5664
5661 5660 5659 5658 5657 5657 5656 5655 5654 5653 5651 5650 5649 5647 5646 5645 5644 5642 5641 5640 5639 5637 5636 5635 5633 5631 5629 5627 5625 5623 5621 5619 5617 5615 5613 5612 5611 5610 5609 5608 5607 5607 5606 5606 5605 5605 5604 5605 5605 5605 5605 5604 5603 5603 5603 5603 5603 5604 5605 5607 5610 5613 5615 5615 5615 5616 5620 5625 5630 5633 5636 5639 5641 5645 5646 5644 5646 5649 5650 5651 5652 5652 5654 5656 5657
5658 5656 5655 5654 5653 5652 5651 5651 5649 5648 5647 5645 5644 5643 5641 5640 5639 5637 5636 5634 5633 5631 5630 5628 5626 5624 5623 5621 5619 5616 5614 5611 5608 5606 5604 5602 5601 5600 5599 5597 5596 5596 5595 5594 5593 5592 5591 5591 5591 5590 5590 5591 5591 5590 5589 5589 5589 5589 5589 5590 5592 5595 5599 5602 5603 5604 5607 5612 5617 5621 5625 5629 5632 5635 5636 5634 5635 5639 5640 5640 5641 5643 5645 5647 5649
5654 5652 5651 5650 5649 5648 5647 5646 5645 5643 5642 5640 5638 5637 5635 5634 5632 5631 5629 5628 5626 5624 5622 5621 5619 5617 5615 5612 5610 5608 5606 5603 5600 5597 5594 5592 5590 5589 5588 5587 5586 5585 5584 5583 5581 5580 5579 5578 5577 5577 5576 5576 5577 5576 5575 5574 5575 5576 5576 5575 5575 5577 5581 5585 5587 5590 5594 5598 5604 5608 5612 5617 5622 5624 5625 5624 5625 5629 5628 5626 5630 5636 5636 5636 5639
5649 5647 5646 5645 5644 5643 5641 5640 5639 5638 5636 5634 5632 5630 5629 5627 5625 5623 5621 5620 5618 5616 5614 5612 5610 5608 5606 5603 5601 5599 5596 5593 5590 5587 5584 5581 5579 5578 5577 5575 5574 5573 5572 5572 5570 5568 5566 5565 5564 5563 5562 5561 5562 5562 5561 5560 5558 5560 5563 5562 5560 5561 5563 5566 5570 5574 5578 5583 5589 5595 5598 5605 5611 5612 5613 5614 5614 5616 5617 5615 5619 5626 5626 5625 5630
5643 5642 5640 5639 5638 5637 5635 5634 5633 5631 5629 5627 5625 5624 5622 5620 5618 5616 5614 5612 5609 5607 5605 5603 5600 5598 5596 5594 5591 5589 5585 5582 5579 5576 5573 5570 5567 5566 5565 5563 5561 5560 5559 5559 5558 5557 5554 5552 5551 5550 5549 5547 5547 5546 5546 5547 5545 5544 5545 5546 5546 5548 5548 5549 5552 5556 5560 5565 5573 5579 5583 5591 5598 5597 5598 5604 5603 5602 5605 5606 5608 5615 5615 5615 5621
5637 5636 5634 5633 5632 5630 5629 5627 5626 5624 5622 5620 5618 5616 5615 5612 5610 5608 5605 5603 5601 5598 5596 5594 5591 5589 5586 5584 5581 5578 5575 5571 5567 5564 5561 5557 5554 5552 5551 5550 5548 5546 5545 5544 5543 5543 5541 5539 5538 5536 5535 5534 5533 5531 5531 5532 5531 5529 5529 5529 5530 5532 5534 5534 5536 5539 5541 5546 5555 5562 5566 5574 5583 5582 5582 5590 5591 5588 5591 5594 5596 5602 5604 5604 5610
5631 5630 5628 5627 5625 5624 5622 5621 5619 5617 5615 5613 5611 5609 5607 5604 5601 5599 5597 5594 5592 5589 5587 5584 5581 5579 5576 5574 5571 5567 5564 5560 5555 5553 5549 5545 5541 5538 5536 5536 5535 5532 5531 5528 5527 5526 5524 5523 5523 5522 5521 5520 5518 5517 5516 5516 5515 5514 5515 5516 5516 5516 5518 5518 5519 5522 5524 5528 5536 5544 5549 5557 5565 5566 5567 5572 5575 5575 5578 5580 5582 5587 5590 5592 5599
5626 5624 5622 5620 5619 5617 5615 5613 5612 5610 5608 5605 5603 5600 5598 5595 5592 5590 5588 5585 5582 5580 5577 5574 5571 5568 5564 5562 5559 5556 5552 5548 5543 5540 5536 5531 5526 5522 5520 5520 5519 5517 5515 5513 5511 5509 5506 5504 5504 5505 5506 5504 5502 5501 5500 5499 5499 5498 5498 5500 5502 5503 5503 5502 5502 5504 5507 5510 5517 5527 5534 5538 5543 5550 5552 5553 5557 5563 5566 5567 5568 5571 5575 5580 5588
5619 5618 5616 5614 5612 5609 5608 5606 5604 5602 5600 5597 5595 5592 5589 5586 5583 5580 5578 5575 5572 5570 5567 5563 5560 5557 5553 5549 5547 5544 5540 5534 5530 5525 5521 5516 5510 5505 5503 5502 5500 5498 5498 5496 5494 5491 5489 5487 5485 5486 5487 5486 5484 5484 5483 5481 5480 5480 5481 5484 5486 5487 5488 5487 5487 5488 5489 5492 5498 5509 5519 5520 5522 5533 5537 5533 5538 5547 5551 5553 5556 5557 5560 5566 5574
5612 5610 5608 5606 5604 5602 5600 5598 5596 5594 5591 5589 5586 5583 5580 5577 5574 5571 5568 5565 5562 5559 5556 5552 5549 5545 5541 5537 5534 5532 5528 5522 5515 5511 5506 5500 5494 5489 5485 5483 5480 5478 5478 5477 5474 5471 5469 5468 5467 5467 5467 5466 5465 5464 5463 5461 5460 5460 5462 5465 5468 5469 5470 5471 5473 5472 5473 5474 5479 5489 5499 5501 5504 5514 5520 5516 5519 5529 5534 5537 5541 5544 5547 5551 5557
5605 5603 5600 5598 5596 5594 5592 5590 5587 5585 5582 5580 5577 5574 5571 5568 5564 5561 5558 5555 5551 5548 5544 5541 5537 5533 5530 5525 5521 5518 5516 5509 5501 5495 5491 5484 5477 5471 5467 5463 5459 5458 5457 5457 5454 5450 5449 5448 5446 5446 5446 5446 5445 5443 5440 5438 5437 5440 5443 5446 5448 5449 5451 5455 5457 5455 5455 5458 5462 5469 5478 5482 5484 5493 5501 5500 5501 5510 5516 5518 5526 5532 5532 5535 5541
5596 5594 5592 5590 5588 5586 5583 5581 5578 5576 5573 5570 5567 5564 5560 5557 5554 5550 5547 5544 5540 5536 5533 5529 5526 5521 5517 5513 5507 5504 5502 5497 5488 5480 5475 5468 5459 5452 5448 5443 5439 5436 5435 5434 5431 5428 5428 5428 5425 5423 5423 5424 5423 5420 5416 5413 5413 5417 5421 5425 5426 5427 5431 5437 5438 5435 5434 5439 5446 5452 5457 5462 5465 5471 5481 5483 5484 5492 5496 5499 5511 5517 5513 5515 5526
5588 5586 5584 5582 5580 5577 5574 5571 5569 5566 5563 5560 5557 5554 5550 5546 5543 5538 5535 5532 5529 5525 5521 5517 5514 5509 5504 5499 5494 5489 5486 5482 5474 5464 5458 5452 5442 5433 5427 5421 5418 5415 5412 5409 5407 5405 5406 5406 5404 5399 5396 5398 5398 5394 5391 5388 5388 5392 5396 5399 5402 5405 5411 5417 5416 5413 5412 5417 5426 5433 5437 5442 5445 5450 5459 5464 5467 5472 5476 5482 5495 5498 5491 5497 5513
5580 5578 5576 5574 5571 5568 5565 5562 5559 5556 5553 5550 5546 5543 5539 5535 5531 5527 5523 5519 5516 5513 5508 5504 5501 5497 5491 5484 5480 5474 5469 5465 5459 5450 5442 5435 5425 5414 5406 5399 5395 5392 5388 5383 5381 5381 5382 5382 5380 5375 5370 5369 5369 5366 5364 5362 5362 5367 5371 5372 5375 5382 5392 5395 5391 5387 5389 5395 5404 5412 5416 5421 5425 5429 5437 5445 5448 5452 5457 5466 5476 5475 5471 5481 5496
5573 5570 5568 5565 5562 5559 5555 5553 5550 5547 5543 5540 5536 5532 5528 5524 5520 5516 5512 5507 5503 5499 5495 5490 5486 5483 5478 5470 5464 5459 5452 5445 5441 5434 5425 5418 5408 5396 5385 5378 5373 5368 5363 5358 5355 5355 5356 5355 5353 5350 5344 5340 5339 5338 5337 5337 5337 5339 5344 5346 5349 5358 5367 5368 5363 5360 5364 5373 5382 5388 5393 5399 5405 5410 5417 5425 5430 5433 5437 5446 5454 5454 5453 5462 5475
5565 5562 5559 5556 5553 5550 5546 5543 5540 5537 5533 5530 5526 5522 5517 5513 5509 5504 5499 5495 5491 5486 5482 5476 5470 5467 5463 5455 5447 5442 5435 5427 5421 5415 5408 5399 5389 5377 5365 5357 5350 5342 5336 5333 5331 5328 5328 5326 5324 5323 5318 5313 5311 5310 5310 5311 5311 5312 5315 5320 5325 5331 5335 5336 5334 5334 5339 5349 5359 5365 5369 5376 5384 5391 5397 5405 5412 5415 5418 5424 5431 5434 5435 5442 5455
5556 5553 5550 5547 5544 5540 5537 5534 5530 5527 5523 5519 5515 5511 5506 5501 5497 5492 5486 5482 5477 5472 5467 5460 5454 5450 5447 5441 5432 5425 5418 5409 5402 5396 5388 5378 5368 5358 5346 5336 5328 5318 5310 5307 5306 5303 5300 5298 5296 5296 5293 5288 5287 5287 5285 5286 5286 5286 5290 5295 5298 5300 5300 5301 5303 5307 5314 5324 5335 5341 5345 5351 5361 5371 5379 5386 5393 5397 5397 5401 5407 5412 5416 5423 5436
5548 5544 5541 5538 5534 5531 5527 5524 5520 5516 5512 5508 5504 5500 5495 5490 5485 5479 5473 5467 5462 5457 5452 5444 5437 5432 5429 5424 5417 5408 5400 5392 5384 5376 5367 5357 5347 5338 5327 5316 5307 5297 5287 5282 5281 5279 5276 5273 5271 5270 5269 5267 5266 5265 5264 5263 5263 5264 5268 5271 5270 5269 5268 5270 5273 5279 5288 5297 5305 5312 5319 5327 5337 5351 5360 5366 5372 5375 5375 5377 5383 5390 5397 5405 5415
5539 5536 5532 5528 5525 5521 5517 5513 5509 5505 5501 5497 5493 5488 5483 5478 5473 5466 5459 5452 5446 5440 5435 5428 5420 5413 5408 5403 5398 5391 5382 5374 5367 5358 5346 5335 5325 5317 5307 5296 5287 5278 5269 5263 5261 5258 5255 5252 5250 5249 5248 5248 5247 5246 5244 5243 5244 5246 5248 5249 5248 5245 5244 5245 5248 5252 5258 5267 5276 5284 5294 5303 5313 5325 5337 5343 5347 5350 5351 5354 5361 5370 5378 5386 5394
5531 5527 5523 5519 5515 5511 5507 5503 5498 5494 5490 5485 5481 5476 5470 5464 5459 5453 5445 5437 5429 5423 5417 5410 5402 5395 5388 5381 5376 5371 5364 5354 5346 5337 5326 5314 5304 5296 5287 5278 5270 5262 5254 5248 5245 5241 5237 5234 5233 5231 5230 5230 5229 5228 5227 5227 5228 5228 5229 5230 5228 5226 5224 5225 5226 5227 5230 5238 5249 5257 5267 5277 5287 5298 5309 5316 5319 5322 5327 5333 5341 5351 5359 5366 5373
5521 5517 5513 5509 5505 5501 5497 5492 5487 5483 5478 5473 5468 5462 5456 5450 5445 5439 5431 5422 5413 5406 5399 5392 5385 5376 5368 5361 5354 5348 5342 5334 5325 5315 5304 5293 5285 5278 5270 5263 5257 5249 5242 5237 5233 5228 5223 5220 5218 5217 5215 5214 5213 5212 5211 5212 5212 5211 5212 5213 5211 5209 5208 5207 5207 5207 5208 5214 5224 5232 5241 5252 5261 5269 5279 5286 5291 5298 5306 5313 5321 5330 5338 5345 5352
5512 5508 5504 5499 5495 5491 5486 5481 5477 5471 5466 5460 5455 5449 5442 5435 5429 5423 5415 5405 5397 5390 5382 5373 5366 5356 5347 5340 5334 5326 5320 5313 5304 5293 5283 5274 5267 5260 5254 5250 5245 5239 5233 5228 5222 5217 5212 5209 5207 5205 5203 5202 5201 5199 5197 5197 5196 5194 5195 5195 5194 5193 5192 5190 5188 5188 5190 5195 5202 5210 5218 5227 5235 5242 5251 5259 5267 5277 5286 5292 5299 5308 5319 5326 5331
5502 5498 5494 5489 5484 5480 5475 5470 5465 5460 5454 5448 5442 5436 5429 5421 5414 5407 5399 5388 5378 5372 5364 5355 5347 5337 5326 5318 5311 5303 5299 5294 5284 5272 5263 5256 5250 5244 5239 5236 5231 5226 5221 5216 5210 5205 5202 5200 5198 5196 5194 5192 5190 5188 5186 5184 5181 5179 5178 5178 5178 5178 5176 5174 5172 5172 5174 5178 5182 5188 5197 5204 5211 5219 5227 5234 5243 5255 5265 5271 5277 5288 5299 5306 5310
5492 5488 5483 5478 5473 5468 5464 5458 5452 5447 5441 5436 5430 5423 5416 5407 5399 5392 5386 5375 5363 5352 5344 5336 5328 5317 5306 5298 5289 5280 5275 5273 5266 5256 5247 5241 5235 5229 5224 5220 5215 5210 5207 5201 5194 5191 5191 5190 5188 5186 5183 5181 5178 5177 5175 5172 5169 5166 5165 5164 5163 5162 5161 5160 5159 5159 5161 5162 5164 5169 5176 5183 5189 5197 5205 5212 5222 5233 5243 5249 5255 5266 5278 5285 5291
5483 5477 5472 5468 5462 5457 5452 5446 5440 5434 5428 5422 5416 5411 5404 5395 5385 5375 5369 5362 5353 5340 5326 5315 5307 5296 5285 5278 5271 5261 5253 5248 5244 5239 5232 5228 5223 5218 5213 5209 5203 5197 5193 5187 5181 5178 5178 5177 5175 5174 5172 5168 5166 5164 5163 5160 5156 5154 5153 5152 5150 5148 5147 5147 5146 5147 5148 5148 5148 5152 5157 5162 5169 5177 5184 5191 5200 5212 5221 5228 5236 5246 5257 5265 5273
5472 5467 5462 5456 5451 5445 5439 5433 5427 5421 5414 5407 5400 5395 5390 5385 5377 5365 5353 5343 5337 5329 5316 5302 5290 5279 5267 5259 5254 5248 5240 5232 5227 5223 5218 5214 5211 5207 5202 5198 5194 5189 5183 5176 5170 5169 5167 5164 5163 5163 5159 5155 5154 5152 5149 5146 5143 5142 5141 5140 5138 5137 5135 5135 5136 5135 5134 5133 5134 5137 5141 5146 5151 5159 5165 5171 5180 5191 5201 5210 5218 5227 5237 5248 5258
5461 5456 5451 5445 5439 5433 5427 5421 5414 5407 5400 5393 5386 5378 5372 5367 5364 5359 5348 5333 5321 5311 5302 5291 5280 5268 5255 5245 5238 5234 5230 5223 5217 5213 5208 5203 5200 5196 5191 5187 5184 5180 5174 5167 5162 5160 5157 5152 5151 5150 5147 5144 5142 5140 5136 5134 5132 5130 5128 5127 5127 5126 5125 5124 5124 5123 5120 5120 5122 5124 5128 5132 5137 5143 5149 5155 5162 5171 5182 5191 5199 5207 5219 5231 5242
5451 5446 5440 5434 5428 5421 5414 5408 5401 5394 5387 5379 5372 5364 5356 5348 5343 5339 5336 5328 5316 5302 5289 5277 5267 5258 5247 5237 5228 5222 5218 5215 5210 5205 5199 5193 5189 5185 5181 5178 5175 5169 5162 5157 5153 5151 5148 5143 5140 5138 5135 5133 5130 5127 5124 5122 5120 5118 5116 5115 5115 5116 5115 5113 5112 5110 5109 5110 5111 5112 5116 5121 5124 5129 5134 5139 5146 5154 5163 5172 5181 5191 5202 5214 5226
5440 5434 5428 5422 5416 5410 5403 5396 5389 5382 5374 5366 5358 5350 5342 5334 5324 5316 5311 5306 5302 5295 5283 5269 5255 5245 5239 5233 5224 5214 5208 5206 5203 5198 5191 5185 5178 5173 5170 5169 5167 5161 5153 5146 5142 5139 5137 5134 5130 5127 5123 5121 5119 5115 5113 5111 5109 5107 5106 5105 5104 5104 5104 5102 5100 5100 5100 5101 5101 5102 5104 5108 5112 5116 5120 5125 5131 5137 5145 5155 5166 5175 5186 5199 5213
5429 5423 5417 5410 5404 5397 5390 5383 5376 5368 5361 5353 5345 5337 5328 5319 5309 5300 5290 5282 5276 5273 5270 5262 5249 5237 5229 5224 5220 5212 5202 5196 5194 5190 5183 5176 5169 5162 5159 5159 5157 5152 5146 5138 5132 5128 5125 5123 5120 5117 5112 5109 5107 5104 5101 5100 5098 5096 5095 5094 5093 5093 5093 5092 5091 5090 5090 5091 5092 5093 5095 5097 5100 5104 5108 5112 5117 5123 5130 5139 5149 5158 5169 5183 5198
5418 5411 5405 5398 5392 5385 5377 5370 5362 5355 5347 5339 5331 5322 5313 5304 5294 5284 5275 5267 5258 5252 5248 5245 5239 5231 5222 5214 5209 5206 5199 5192 5187 5182 5175 5168 5161 5153 5148 5146 5145 5141 5137 5130 5124 5119 5116 5112 5108 5106 5102 5099 5096 5093 5090 5089 5087 5085 5084 5084 5083 5083 5083 5082 5082 5081 5081 5081 5083 5084 5085 5087 5090 5093 5096 5100 5105 5110 5117 5126 5134 5143 5154 5166 5180
5406 5400 5393 5386 5379 5372 5365 5357 5349 5341 5333 5325 5317 5308 5298 5289 5279 5269 5260 5252 5245 5239 5233 5228 5224 5220 5216 5208 5201 5196 5193 5188 5183 5176 5168 5159 5153 5146 5139 5135 5132 5130 5126 5121 5114 5110 5107 5102 5097 5094 5091 5088 5086 5083 5080 5078 5077 5075 5074 5073 5073 5073 5074 5074 5073 5072 5072 5072 5074 5075 5076 5077 5080 5082 5084 5088 5093 5098 5105 5114 5122 5131 5141 5152 5164
5395 5388 5381 5374 5367 5360 5352 5345 5337 5328 5320 5311 5302 5293 5284 5274 5264 5255 5247 5240 5233 5226 5221 5217 5212 5207 5203 5200 5193 5188 5185 5182 5177 5171 5163 5154 5146 5139 5133 5128 5123 5119 5116 5112 5105 5100 5097 5093 5088 5084 5080 5077 5075 5072 5070 5068 5066 5065 5063 5063 5063 5064 5064 5065 5065 5064 5064 5064 5065 5066 5067 5068 5070 5072 5073 5076 5081 5087 5094 5102 5110 5118 5128 5138 5149
5383 5376 5369 5362 5355 5347 5340 5332 5324 5316 5307 5298 5288 5278 5269 5260 5251 5243 5235 5228 5223 5217 5211 5208 5204 5198 5192 5188 5183 5178 5176 5173 5168 5162 5157 5150 5141 5132 5126 5121 5116 5111 5107 5102 5097 5091 5086 5082 5078 5074 5070 5067 5064 5062 5060 5058 5056 5055 5054 5053 5054 5055 5055 5056 5056 5056 5056 5056 5056 5057 5057 5059 5061 5062 5063 5066 5071 5076 5083 5090 5098 5107 5117 5126 5136
5371 5364 5357 5350 5342 5335 5327 5319 5311 5302 5293 5285 5275 5265 5256 5247 5239 5232 5225 5218 5213 5209 5204 5200 5196 5191 5185 5179 5173 5168 5166 5164 5159 5152 5147 5142 5135 5127 5119 5113 5108 5103 5097 5093 5087 5082 5077 5072 5068 5064 5061 5057 5054 5051 5049 5047 5046 5045 5044 5044 5044 5045 5046 5047 5047 5048 5048 5047 5047 5048 5048 5050 5051 5052 5053 5056 5061 5067 5073 5080 5088 5096 5106 5116 5127
5359 5352 5345 5338 5330 5323 5315 5306 5298 5289 5280 5271 5262 5252 5244 5235 5227 5221 5215 5210 5204 5201 5197 5193 5189 5184 5178 5172 5166 5160 5156 5152 5148 5143 5138 5132 5127 5121 5114 5107 5100 5095 5089 5084 5078 5073 5068 5063 5059 5055 5051 5048 5044 5041 5039 5038 5037 5036 5036 5035 5036 5036 5037 5037 5038 5039 5039 5039 5038 5039 5040 5041 5042 5043 5045 5048 5053 5058 5065 5072 5080 5088 5097 5107 5117
5348 5341 5333 5326 5318 5311 5303 5294 5285 5276 5268 5259 5249 5240 5232 5225 5218 5212 5206 5202 5197 5193 5190 5187 5182 5177 5171 5165 5160 5154 5149 5144 5139 5134 5129 5124 5119 5114 5108 5102 5095 5089 5082 5076 5070 5065 5060 5056 5051 5046 5042 5039 5036 5032 5030 5029 5028 5027 5028 5028 5028 5028 5028 5028 5029 5029 5030 5030 5030 5031 5032 5032 5034 5035 5038 5041 5046 5051 5057 5064 5072 5080 5089 5099 5109
5337 5329 5322 5314 5306 5298 5290 5282 5274 5265 5256 5246 5238 5230 5222 5216 5210 5204 5199 5195 5190 5186 5182 5179 5175 5171 5166 5160 5154 5148 5143 5138 5132 5126 5121 5117 5112 5108 5103 5097 5090 5084 5077 5070 5064 5058 5053 5048 5044 5039 5035 5031 5028 5025 5022 5021 5020 5020 5020 5021 5021 5021 5020 5020 5021 5021 5021 5021 5022 5022 5023 5024 5025 5027 5030 5033 5038 5043 5049 5056 5063 5071 5080 5091 5101
5325 5318 5310 5302 5294 5286 5278 5270 5261 5253 5244 5236 5228 5220 5213 5208 5203 5197 5192 5188 5184 5180 5175 5171 5167 5164 5160 5155 5149 5143 5138 5132 5126 5120 5115 5111 5106 5102 5097 5091 5085 5079 5072 5066 5059 5052 5047 5042 5037 5033 5028 5024 5021 5018 5016 5013 5012 5013 5013 5014 5014 5014 5013 5013 5013 5013 5013 5014 5014 5015 5016 5017 5018 5021 5024 5028 5033 5039 5045 5051 5058 5066 5074 5084 5094
5314 5306 5299 5291 5283 5275 5266 5258 5249 5241 5233 5226 5219 5213 5206 5200 5196 5191 5187 5182 5178 5174 5170 5165 5160 5157 5153 5149 5144 5138 5132 5126 5120 5114 5109 5105 5100 5096 5091 5086 5080 5074 5068 5062 5056 5049 5043 5037 5032 5027 5023 5019 5015 5012 5009 5007 5006 5006 5006 5007 5008 5008 5007 5006 5006 5006 5007 5007 5008 5009 5009 5010 5012 5015 5019 5024 5028 5033 5039 5045 5052 5059 5068 5077 5088
5302 5295 5287 5280 5272 5264 5255 5247 5239 5231 5223 5217 5211 5206 5200 5195 5190 5186 5181 5177 5173 5168 5164 5159 5155 5151 5147 5142 5138 5133 5127 5121 5115 5109 5104 5099 5095 5090 5085 5080 5075 5070 5064 5058 5052 5046 5040 5034 5028 5023 5018 5014 5010 5006 5004 5001 5000 4999 5000 5000 5001 5002 5001 5000 5000 5000 5001 5002 5002 5003 5004 5006 5008 5011 5015 5019 5023 5027 5033 5040 5046 5053 5061 5071 5082
5291 5284 5276 5269 5261 5253 5245 5237 5229 5222 5215 5209 5204 5199 5195 5190 5185 5180 5176 5171 5167 5162 5158 5154 5149 5146 5141 5137 5132 5127 5122 5115 5109 5104 5099 5095 5090 5085 5080 5076 5071 5065 5060 5054 5048 5043 5037 5031 5025 5019 5014 5010 5005 5002 4999 4996 4994 4994 4994 4994 4995 4995 4995 4994 4994 4995 4995 4996 4996 4997 4999 5001 5004 5008 5011 5015 5020 5025 5031 5038 5044 5051 5058 5068 5078
5280 5273 5265 5258 5250 5242 5234 5227 5220 5213 5208 5202 5198 5193 5188 5184 5180 5175 5170 5166 5161 5157 5153 5148 5144 5141 5137 5132 5127 5122 5116 5110 5105 5099 5094 5090 5085 5081 5076 5071 5066 5061 5056 5050 5045 5039 5033 5027 5021 5016 5010 5006 5001 4997 4994 4992 4990 4989 4988 4988 4988 4988 4988 4988 4988 4989 4990 4990 4991 4992 4994 4997 5000 5004 5007 5012 5017 5022 5028 5034 5040 5047 5056 5065 5076
5268 5261 5253 5246 5238 5231 5224 5217 5211 5206 5201 5196 5192 5187 5183 5178 5173 5169 5164 5160 5156 5151 5147 5144 5140 5136 5132 5127 5122 5117 5111 5105 5101 5096 5091 5086 5081 5077 5072 5067 5062 5057 5051 5046 5041 5035 5029 5024 5018 5012 5007 5002 4997 4994 4990 4987 4985 4984 4983 4982 4982 4982 4982 4982 4983 4984 4984 4985 4986 4988 4990 4993 4996 5000 5003 5008 5013 5018 5024 5030 5036 5044 5052 5062 5072
5257 5249 5242 5234 5227 5220 5214 5208 5203 5198 5194 5190 5186 5181 5177 5172 5167 5163 5158 5154 5151 5147 5143 5139 5136 5132 5127 5123 5118 5113 5107 5102 5097 5092 5087 5082 5077 5073 5069 5064 5059 5053 5048 5042 5037 5031 5025 5020 5015 5009 5004 4998 4994 4990 4986 4983 4981 4980 4978 4977 4977 4976 4976 4977 4978 4979 4980 4981 4983 4985 4987 4990 4994 4997 5001 5005 5010 5015 5021 5027 5034 5040 5049 5058 5069
5246 5239 5232 5225 5218 5212 5206 5201 5196 5192 5187 5183 5179 5175 5170 5166 5161 5157 5153 5149 5146 5142 5139 5136 5132 5128 5123 5119 5113 5108 5103 5098 5093 5088 5083 5079 5074 5070 5066 5061 5056 5051 5045 5039 5033 5028 5022 5017 5012 5006 5001 4995 4991 4986 4983 4980 4977 4976 4974 4973 4973 4972 4973 4973 4974 4975 4976 4977 4979 4982 4985 4988 4992 4996 5000 5004 5008 5013 5019 5024 5030 5037 5045 5056 5067